Location: Prague
(50.0830°N, 14.4670°E)
Time: 17:39:19
(UTC+02:00)

Envisat - Pass Details

Date: 04 October 2021
Orbit: 764 x 766 km, 98.2° (Epoch: 19 October)

Event Time Altitude Azimuth Distance (km) Brightness Sun altitude
Rises 05:20:51 0° 22° (NNE) 3,243 6.8 -17.7°
Reaches altitude 10° 05:23:30 10° 35° (NE) 2,311 6.2 -17.3°
Maximum altitude 05:27:50 27° 93° (E) 1,430 5.2 -16.6°
Drops below altitude 10° 05:32:07 10° 151° (SSE) 2,296 5.7 -15.9°
Sets 05:34:44 0° 163° (SSE) 3,217 6.3 -15.5°
